Time,TemperatureF,DewpointF,PressureIn,WindDirection,WindDirectionDegrees,WindSpeedMPH,WindSpeedGustMPH,Humidity,HourlyPrecipIn,Conditions,Clouds,dailyrainin,SolarRadiationWatts/m^2,SoftwareType,DateUTC
2013-09-22 00:00:00,33.0,31.0,-100.00,ENE,57,0.0,0.0,94,0.00,,,0.01,0.000000,,2013-09-22 05:00:00,
2013-09-22 00:23:00,33.0,31.0,-100.00,ENE,57,0.0,0.0,94,0.00,,,0.01,0.000000,,2013-09-22 05:23:00,
2013-09-22 00:35:00,33.0,31.0,-100.00,ENE,57,0.0,0.0,94,0.00,,,0.01,0.000000,,2013-09-22 05:35:00,
2013-09-22 00:43:00,33.0,31.0,-100.00,ENE,57,0.0,0.0,94,0.00,,,0.01,0.000000,,2013-09-22 05:43:00,
2013-09-22 00:53:00,33.0,31.0,-100.00,ENE,57,0.0,0.0,94,0.00,,,0.01,0.000000,,2013-09-22 05:53:00,
2013-09-22 01:00:00,32.0,30.0,-100.00,ESE,102,0.0,0.0,94,0.00,,,0.01,0.000000,,2013-09-22 06:00:00,
2013-09-22 01:22:00,32.0,30.0,-100.00,ESE,102,0.0,0.0,94,0.00,,,0.01,0.000000,,2013-09-22 06:22:00,
2013-09-22 01:32:00,32.0,30.0,-100.00,ESE,102,0.0,0.0,94,0.00,,,0.01,0.000000,,2013-09-22 06:32:00,
2013-09-22 01:42:00,32.0,30.0,-100.00,ESE,102,0.0,0.0,94,0.00,,,0.01,0.000000,,2013-09-22 06:42:00,
2013-09-22 01:52:00,32.0,30.0,-100.00,ESE,102,0.0,0.0,94,0.00,,,0.01,0.000000,,2013-09-22 06:52:00,
2013-09-22 02:00:00,31.0,29.0,-100.00,ENE,66,0.0,0.0,94,0.00,,,0.01,0.000000,,2013-09-22 07:00:00,
2013-09-22 02:22:00,31.0,29.0,-100.00,ENE,66,0.0,0.0,94,0.00,,,0.01,0.000000,,2013-09-22 07:22:00,
2013-09-22 02:32:00,31.0,29.0,-100.00,ENE,66,0.0,0.0,94,0.00,,,0.01,0.000000,,2013-09-22 07:32:00,
2013-09-22 02:42:00,31.0,29.0,-100.00,ENE,66,0.0,0.0,94,0.00,,,0.01,0.000000,,2013-09-22 07:42:00,
2013-09-22 02:52:00,31.0,29.0,-100.00,ENE,66,0.0,0.0,94,0.00,,,0.01,0.000000,,2013-09-22 07:52:00,
2013-09-22 03:00:00,30.0,29.0,-100.00,East,82,0.0,0.0,95,0.00,,,0.01,0.000000,,2013-09-22 08:00:00,
2013-09-22 03:22:00,30.0,29.0,-100.00,East,82,0.0,0.0,95,0.00,,,0.01,0.000000,,2013-09-22 08:22:00,
2013-09-22 03:32:00,30.0,29.0,-100.00,East,82,0.0,0.0,95,0.00,,,0.01,0.000000,,2013-09-22 08:32:00,
2013-09-22 03:42:00,30.0,29.0,-100.00,East,82,0.0,0.0,95,0.00,,,0.01,0.000000,,2013-09-22 08:42:00,
2013-09-22 03:52:00,30.0,29.0,-100.00,East,82,0.0,0.0,95,0.00,,,0.01,0.000000,,2013-09-22 08:52:00,
2013-09-22 04:00:00,29.0,28.0,-100.00,NE,51,0.0,0.0,95,0.00,,,0.01,0.000000,,2013-09-22 09:00:00,
2013-09-22 04:22:00,29.0,28.0,-100.00,NE,51,0.0,0.0,95,0.00,,,0.01,0.000000,,2013-09-22 09:22:00,
2013-09-22 04:33:00,29.0,28.0,-100.00,NE,51,0.0,0.0,95,0.00,,,0.01,0.000000,,2013-09-22 09:33:00,
2013-09-22 04:43:00,29.0,28.0,-100.00,NE,51,0.0,0.0,95,0.00,,,0.01,0.000000,,2013-09-22 09:43:00,
2013-09-22 04:54:00,29.0,28.0,-100.00,NE,51,0.0,0.0,95,0.00,,,0.01,0.000000,,2013-09-22 09:54:00,
2013-09-22 05:23:00,29.0,28.0,-100.00,ENE,60,0.0,0.0,95,0.00,,,0.01,0.000000,,2013-09-22 10:23:00,
2013-09-22 05:33:00,29.0,28.0,-100.00,ENE,60,0.0,0.0,95,0.00,,,0.01,0.000000,,2013-09-22 10:33:00,
2013-09-22 05:44:00,29.0,28.0,-100.00,ENE,60,0.0,0.0,95,0.00,,,0.01,0.000000,,2013-09-22 10:44:00,
2013-09-22 05:53:00,29.0,28.0,-100.00,ENE,60,0.0,0.0,95,0.00,,,0.01,0.000000,,2013-09-22 10:53:00,
2013-09-22 06:00:00,29.0,28.0,-100.00,ENE,66,0.0,0.0,95,0.00,,,0.01,0.000000,,2013-09-22 11:00:00,
2013-09-22 06:42:00,29.0,28.0,-100.00,ENE,66,0.0,0.0,95,0.00,,,0.01,0.000000,,2013-09-22 11:42:00,
2013-09-22 06:52:00,29.0,28.0,-100.00,ENE,66,0.0,0.0,95,0.00,,,0.01,0.000000,,2013-09-22 11:52:00,
2013-09-22 07:00:00,28.0,27.0,-100.00,ENE,62,0.0,2.0,94,0.00,,,0.00,2.000000,,2013-09-22 12:00:00,
2013-09-22 07:22:00,28.0,27.0,-100.00,ENE,62,0.0,2.0,94,0.00,,,0.00,2.000000,,2013-09-22 12:22:00,
2013-09-22 07:32:00,28.0,27.0,-100.00,ENE,62,0.0,2.0,94,0.00,,,0.00,2.000000,,2013-09-22 12:32:00,
2013-09-22 07:42:00,28.0,27.0,-100.00,ENE,62,0.0,2.0,94,0.00,,,0.00,2.000000,,2013-09-22 12:42:00,
2013-09-22 07:52:00,28.0,27.0,-100.00,ENE,62,0.0,2.0,94,0.00,,,0.00,2.000000,,2013-09-22 12:52:00,
2013-09-22 08:00:00,34.0,32.0,-100.00,East,97,0.0,0.0,92,0.00,,,0.00,130.000000,,2013-09-22 13:00:00,
2013-09-22 08:42:00,34.0,32.0,-100.00,East,97,0.0,0.0,92,0.00,,,0.00,130.000000,,2013-09-22 13:42:00,
2013-09-22 08:52:00,34.0,32.0,-100.00,East,97,0.0,0.0,92,0.00,,,0.00,130.000000,,2013-09-22 13:52:00,
2013-09-22 09:00:00,45.0,39.0,-100.00,SSE,163,2.0,5.0,80,0.00,,,-99.99,334.000000,,2013-09-22 14:00:00,
2013-09-22 09:42:00,45.0,39.0,-100.00,SSE,163,2.0,5.0,80,0.00,,,-99.99,334.000000,,2013-09-22 14:42:00,
2013-09-22 09:52:00,45.0,39.0,-100.00,SSE,163,2.0,5.0,80,0.00,,,-99.99,334.000000,,2013-09-22 14:52:00,
2013-09-22 10:00:00,50.0,39.0,-100.00,SSE,159,4.0,10.0,65,0.00,,,0.00,519.000000,,2013-09-22 15:00:00,
2013-09-22 10:23:00,50.0,39.0,-100.00,SSE,159,4.0,10.0,65,0.00,,,0.00,519.000000,,2013-09-22 15:23:00,
2013-09-22 10:34:00,50.0,39.0,-100.00,SSE,159,4.0,10.0,65,0.00,,,0.00,519.000000,,2013-09-22 15:34:00,
2013-09-22 10:44:00,50.0,39.0,-100.00,SSE,159,4.0,10.0,65,0.00,,,0.00,519.000000,,2013-09-22 15:44:00,
2013-09-22 10:55:00,50.0,39.0,-100.00,SSE,159,4.0,10.0,65,0.00,,,0.00,519.000000,,2013-09-22 15:55:00,
2013-09-22 11:00:00,53.0,38.0,-100.00,SE,141,4.0,9.0,57,0.00,,,-99.99,669.000000,,2013-09-22 16:00:00,
2013-09-22 11:24:00,53.0,38.0,-100.00,SE,141,4.0,9.0,57,0.00,,,-99.99,669.000000,,2013-09-22 16:24:00,
2013-09-22 11:33:00,53.0,38.0,-100.00,SE,141,4.0,9.0,57,0.00,,,-99.99,669.000000,,2013-09-22 16:33:00,
2013-09-22 11:43:00,53.0,38.0,-100.00,SE,141,4.0,9.0,57,0.00,,,-99.99,669.000000,,2013-09-22 16:43:00,
2013-09-22 11:54:00,53.0,38.0,-100.00,SE,141,4.0,9.0,57,0.00,,,-99.99,669.000000,,2013-09-22 16:54:00,
2013-09-22 12:00:00,56.0,40.0,-100.00,SSE,168,3.0,11.0,54,0.00,,,0.00,784.000000,,2013-09-22 17:00:00,
2013-09-22 12:43:00,56.0,40.0,-100.00,SSE,168,3.0,11.0,54,0.00,,,0.00,784.000000,,2013-09-22 17:43:00,
2013-09-22 12:53:00,56.0,40.0,-100.00,SSE,168,3.0,11.0,54,0.00,,,0.00,784.000000,,2013-09-22 17:53:00,
2013-09-22 13:00:00,58.0,39.0,-100.00,ESE,106,5.0,9.0,50,0.00,,,0.00,831.000000,,2013-09-22 18:00:00,
2013-09-22 13:42:00,58.0,39.0,-100.00,ESE,106,5.0,9.0,50,0.00,,,0.00,831.000000,,2013-09-22 18:42:00,
2013-09-22 13:52:00,58.0,39.0,-100.00,ESE,106,5.0,9.0,50,0.00,,,0.00,831.000000,,2013-09-22 18:52:00,
2013-09-22 14:00:00,61.0,41.0,-100.00,SSE,157,4.0,11.0,47,0.00,,,0.00,814.000000,,2013-09-22 19:00:00,
2013-09-22 14:42:00,61.0,41.0,-100.00,SSE,157,4.0,11.0,47,0.00,,,0.00,814.000000,,2013-09-22 19:42:00,
2013-09-22 14:52:00,61.0,41.0,-100.00,SSE,157,4.0,11.0,47,0.00,,,0.00,814.000000,,2013-09-22 19:52:00,
2013-09-22 15:00:00,62.0,40.0,-100.00,ESE,112,5.0,11.0,45,0.00,,,0.00,737.000000,,2013-09-22 20:00:00,
2013-09-22 15:42:00,62.0,40.0,-100.00,ESE,112,5.0,11.0,45,0.00,,,0.00,737.000000,,2013-09-22 20:42:00,
2013-09-22 15:52:00,62.0,40.0,-100.00,ESE,112,5.0,11.0,45,0.00,,,0.00,737.000000,,2013-09-22 20:52:00,
2013-09-22 16:00:00,63.0,41.0,-100.00,SE,140,3.0,11.0,44,0.00,,,0.00,601.000000,,2013-09-22 21:00:00,
2013-09-22 16:23:00,63.0,41.0,-100.00,SE,140,3.0,11.0,44,0.00,,,0.00,601.000000,,2013-09-22 21:23:00,
2013-09-22 16:34:00,63.0,41.0,-100.00,SE,140,3.0,11.0,44,0.00,,,0.00,601.000000,,2013-09-22 21:34:00,
2013-09-22 16:45:00,63.0,41.0,-100.00,SE,140,3.0,11.0,44,0.00,,,0.00,601.000000,,2013-09-22 21:45:00,
2013-09-22 16:54:00,63.0,41.0,-100.00,SE,140,3.0,11.0,44,0.00,,,0.00,601.000000,,2013-09-22 21:54:00,
2013-09-22 17:00:00,63.0,41.0,-100.00,SSE,157,3.0,9.0,45,0.00,,,0.00,423.000000,,2013-09-22 22:00:00,
2013-09-22 17:43:00,63.0,41.0,-100.00,SSE,157,3.0,9.0,45,0.00,,,0.00,423.000000,,2013-09-22 22:43:00,
2013-09-22 17:53:00,63.0,41.0,-100.00,SSE,157,3.0,9.0,45,0.00,,,0.00,423.000000,,2013-09-22 22:53:00,
2013-09-22 18:00:00,61.0,41.0,-100.00,SSE,159,2.0,8.0,48,0.00,,,0.00,227.000000,,2013-09-22 23:00:00,
2013-09-22 18:22:00,61.0,41.0,-100.00,SSE,159,2.0,8.0,48,0.00,,,0.00,227.000000,,2013-09-22 23:22:00,
2013-09-22 18:34:00,61.0,41.0,-100.00,SSE,159,2.0,8.0,48,0.00,,,0.00,227.000000,,2013-09-22 23:34:00,
2013-09-22 18:43:00,61.0,41.0,-100.00,SSE,159,2.0,8.0,48,0.00,,,0.00,227.000000,,2013-09-22 23:43:00,
2013-09-22 18:52:00,61.0,41.0,-100.00,SSE,159,2.0,8.0,48,0.00,,,0.00,227.000000,,2013-09-22 23:52:00,
2013-09-22 19:00:00,54.0,43.0,-100.00,ESE,122,0.0,5.0,67,0.00,,,0.00,44.000000,,2013-09-23 00:00:00,
2013-09-22 19:23:00,54.0,43.0,-100.00,ESE,122,0.0,5.0,67,0.00,,,0.00,44.000000,,2013-09-23 00:23:00,
2013-09-22 19:32:00,54.0,43.0,-100.00,ESE,122,0.0,5.0,67,0.00,,,0.00,44.000000,,2013-09-23 00:32:00,
2013-09-22 19:42:00,54.0,43.0,-100.00,ESE,122,0.0,5.0,67,0.00,,,0.00,44.000000,,2013-09-23 00:42:00,
2013-09-22 19:53:00,54.0,43.0,-100.00,ESE,122,0.0,5.0,67,0.00,,,0.00,44.000000,,2013-09-23 00:53:00,
2013-09-22 20:00:00,48.0,43.0,-100.00,ESE,106,0.0,2.0,83,0.00,,,0.00,1.000000,,2013-09-23 01:00:00,
2013-09-22 20:22:00,48.0,43.0,-100.00,ESE,106,0.0,2.0,83,0.00,,,0.00,1.000000,,2013-09-23 01:22:00,
2013-09-22 20:32:00,48.0,43.0,-100.00,ESE,106,0.0,2.0,83,0.00,,,0.00,1.000000,,2013-09-23 01:32:00,
2013-09-22 20:43:00,48.0,43.0,-100.00,ESE,106,0.0,2.0,83,0.00,,,0.00,1.000000,,2013-09-23 01:43:00,
2013-09-22 20:52:00,48.0,43.0,-100.00,ESE,106,0.0,2.0,83,0.00,,,0.00,1.000000,,2013-09-23 01:52:00,
2013-09-22 21:00:00,46.0,41.0,-100.00,SSE,156,1.0,4.0,83,0.00,,,0.00,0.000000,,2013-09-23 02:00:00,
2013-09-22 21:42:00,46.0,41.0,-100.00,SSE,156,1.0,4.0,83,0.00,,,0.00,0.000000,,2013-09-23 02:42:00,
2013-09-22 21:52:00,46.0,41.0,-100.00,SSE,156,1.0,4.0,83,0.00,,,0.00,0.000000,,2013-09-23 02:52:00,
2013-09-22 22:00:00,46.0,41.0,-100.00,SE,137,1.0,4.0,82,0.00,,,0.00,0.000000,,2013-09-23 03:00:00,
2013-09-22 22:44:00,46.0,41.0,-100.00,SE,137,1.0,4.0,82,0.00,,,0.00,0.000000,,2013-09-23 03:44:00,
2013-09-22 22:54:00,46.0,41.0,-100.00,SE,137,1.0,4.0,82,0.00,,,0.00,0.000000,,2013-09-23 03:54:00,
2013-09-22 23:00:00,45.0,40.0,-100.00,SSE,152,2.0,4.0,84,0.00,,,0.00,0.000000,,2013-09-23 04:00:00,
2013-09-22 23:24:00,45.0,40.0,-100.00,SSE,152,2.0,4.0,84,0.00,,,0.00,0.000000,,2013-09-23 04:24:00,
2013-09-22 23:34:00,45.0,40.0,-100.00,SSE,152,2.0,4.0,84,0.00,,,0.00,0.000000,,2013-09-23 04:34:00,
2013-09-22 23:43:00,45.0,40.0,-100.00,SSE,152,2.0,4.0,84,0.00,,,0.00,0.000000,,2013-09-23 04:43:00,
2013-09-22 23:54:00,45.0,40.0,-100.00,SSE,152,2.0,4.0,84,0.00,,,0.00,0.000000,,2013-09-23 04:54:00,